Moffett NAS, CA

9:32 AM PDT on May 26, 2018 (GMT -0700)
Moffett Federal Air Field

Weather History for KNUQ - September, 2014

Change the Weather History Date:

Saturday, September 20, 2014

  Actual Average Record
Temperature  
Mean Temperature 70 °F 67 °F  
Max Temperature 77 °F 77 °F 96 °F (1990)
Min Temperature 63 °F 57 °F 45 °F (1947)
Degree Days  
Heating Degree Days 0    
Month to date heating degree days 2  
Since 1 July heating degree days 2  
Cooling Degree Days 5    
Month to date cooling degree days 96  
Year to date cooling degree days 538  
Growing Degree Days 20 (Base 50)    
Moisture  
Dew Point 60 °F    
Average Humidity 74    
Maximum Humidity 87    
Minimum Humidity 60    
Precipitation  
Precipitation 0.00 in 0.01 in 0.02 in (1973)
Month to date precipitation T 0.09  
Year to date precipitation 5.19 9.75  
Since 1 July precipitation T  
Sea Level Pressure  
Sea Level Pressure 29.93 in    
Wind  
Wind Speed 6 mph (North)    
Max Wind Speed 20 mph    
Max Gust Speed 23 mph    
Visibility 10 miles    
Events      
T = Trace of Precipitation, MM = Missing Value Source: NWS Daily Summary

Daily Weather History Graph

Daily Weather History Graph

Search for Another Location

Airport or City:

Astronomy

Sep. 20, 2014 Rise Set
Actual Time 6:54 AM PDT 7:08 PM PDT
Civil Twilight 6:28 AM PDT 7:34 PM PDT
Nautical Twilight 5:57 AM PDT 8:04 PM PDT
Astronomical Twilight 5:26 AM PDT 8:35 PM PDT
Moon 3:41 AM PDT (9/20) 5:11 PM PDT (9/20)
Length of Visible Light 13h 05m
Length of Day
12h 13m
Waning Crescent, 11% of the Moon is Illuminated
Sep 20
Waning Crescent
Sep 23
New
Oct 1
First Quarter
Oct 8
Full
Oct 15
Last Quarter

Hourly Weather History & Observations

Time (PDT) Temp. Dew Point Humidity Pressure Visibility Wind Dir Wind Speed Gust Speed Precip Events Conditions
12:56 AM 66.0 °F 62.1 °F 87% 29.91 in 10.0 mi Calm Calm - N/A   Overcast
1:09 AM 66.2 °F 62.6 °F 88% 29.90 in 10.0 mi North 3.5 mph - N/A   Mostly Cloudy
1:56 AM 66.0 °F 62.1 °F 87% 29.91 in 10.0 mi Calm Calm - N/A   Overcast
2:56 AM 66.0 °F 62.1 °F 87% 29.91 in 10.0 mi Calm Calm - N/A   Overcast
3:56 AM 66.9 °F 61.0 °F 81% 29.90 in 10.0 mi Calm Calm - N/A   Overcast
4:56 AM 66.0 °F 61.0 °F 84% 29.90 in 10.0 mi NNW 3.5 mph - N/A   Overcast
5:56 AM 66.0 °F 61.0 °F 84% 29.90 in 10.0 mi NNW 3.5 mph - N/A   Overcast
6:56 AM 66.0 °F 60.1 °F 81% 29.92 in 10.0 mi Calm Calm - N/A   Overcast
7:56 AM 66.0 °F 60.1 °F 81% 29.94 in 10.0 mi Calm Calm - N/A   Overcast
8:56 AM 66.9 °F 60.1 °F 79% 29.94 in 9.0 mi Calm Calm - N/A   Overcast
9:42 AM 68.0 °F 60.8 °F 78% 29.94 in 10.0 mi Calm Calm - N/A   Overcast
9:56 AM 69.1 °F 60.1 °F 73% 29.96 in 10.0 mi Calm Calm - N/A   Overcast
10:56 AM 71.1 °F 60.1 °F 68% 29.96 in 10.0 mi Calm Calm - N/A   Mostly Cloudy
11:09 AM 73.4 °F 60.8 °F 65% 29.95 in 10.0 mi Variable 5.8 mph - N/A   Scattered Clouds
11:56 AM 73.9 °F 61.0 °F 64% 29.95 in 10.0 mi North 4.6 mph - N/A   Clear
12:56 PM 75.0 °F 61.0 °F 62% 29.94 in 10.0 mi NNW 9.2 mph - N/A   Clear
1:56 PM 75.0 °F 61.0 °F 62% 29.92 in 10.0 mi NW 11.5 mph - N/A   Clear
2:56 PM 73.0 °F 61.0 °F 66% 29.91 in 10.0 mi North 16.1 mph - N/A   Clear
3:56 PM 73.9 °F 61.0 °F 64% 29.90 in 10.0 mi North 13.8 mph 20.7 mph N/A   Clear
4:56 PM 71.1 °F 61.0 °F 70% 29.90 in 10.0 mi North 16.1 mph - N/A   Clear
5:56 PM 70.0 °F 60.1 °F 71% 29.91 in 10.0 mi NNW 11.5 mph - N/A   Clear
6:56 PM 68.0 °F 59.0 °F 73% 29.91 in 10.0 mi North 11.5 mph - N/A   Clear
7:56 PM 66.9 °F 59.0 °F 76% 29.94 in 10.0 mi North 10.4 mph - N/A   Clear
8:56 PM 64.9 °F 59.0 °F 81% 29.95 in 10.0 mi NNW 6.9 mph - N/A   Clear
9:56 PM 64.9 °F 59.0 °F 81% 29.95 in 10.0 mi NNE 5.8 mph - N/A   Clear
10:48 PM 64.4 °F 59.0 °F 83% 29.96 in 10.0 mi North 12.7 mph - N/A   Mostly Cloudy
10:56 PM 64.9 °F 59.0 °F 81% 29.96 in 10.0 mi North 13.8 mph - N/A   Mostly Cloudy
11:36 PM 64.4 °F 57.2 °F 77% 29.96 in 10.0 mi Calm Calm - N/A   Scattered Clouds
11:56 PM 63.0 °F 57.0 °F 81% 29.96 in 10.0 mi Calm Calm - N/A   Clear